Theta_e
291 292 292 292 292 292 293 293 293 293 293 293 293 294 294 294 295 295 295 295 296 296 296 297 297 298 299 300 300 300 300 299 299 299 300 300 301 303 305 307 307 308 308 308 308 309 310 311 311 311 312 312 312 312 313 313 314 315 316 317 317 318 318 318 318 318 318 318 317 317 316 316 316 316 317 317 318 318 318 320 321 323 325 326 328 332
291 291 292 292 292 292 292 292 293 293 293 293 293 293 294 294 294 294 295 295 295 295 296 296 297 297 298 299 299 299 298 299 299 300 300 301 302 303 305 306 306 306 306 306 306 306 306 306 307 307 308 308 309 309 309 310 310 311 312 313 314 316 317 317 318 318 318 318 318 317 317 316 316 316 317 318 318 318 318 319 320 322 324 325 327 329
291 291 291 291 292 292 292 292 292 292 293 293 293 293 293 294 294 294 294 294 295 295 296 296 296 297 297 298 298 298 298 299 299 300 301 302 303 304 305 305 305 305 305 305 306 305 305 305 305 305 305 305 305 306 306 306 307 307 308 309 310 312 314 315 316 317 317 317 317 317 316 316 316 316 316 317 317 318 318 318 319 320 322 324 326 328
291 291 291 291 292 292 292 292 292 292 292 293 293 293 293 293 294 294 294 294 295 295 295 296 296 297 297 297 298 298 299 299 300 301 302 303 304 304 305 305 305 305 304 304 304 304 304 304 303 303 303 303 303 303 303 304 304 305 305 306 307 309 311 313 314 315 316 316 316 315 315 315 315 315 315 315 316 316 317 317 318 319 322 324 326 328
292 292 292 292 292 292 292 292 292 292 292 293 293 293 293 293 294 294 294 294 294 295 295 296 296 297 297 298 298 299 300 300 301 301 302 302 303 303 304 304 304 303 303 303 303 303 303 303 302 302 302 302 302 302 302 303 304 304 305 305 306 307 309 312 313 314 315 315 315 315 315 314 314 314 314 314 315 315 316 316 317 318 321 323 326 328
292 292 292 292 292 292 292 292 292 292 292 292 292 293 293 293 294 294 294 294 294 295 295 296 296 297 298 299 299 300 300 300 300 301 301 301 301 302 302 302 302 302 301 301 301 302 302 302 302 302 302 302 302 303 303 303 304 304 304 305 306 307 309 311 313 314 315 315 315 315 315 315 314 314 314 314 314 315 315 316 316 317 319 322 325 328
292 292 292 292 292 292 292 292 292 292 292 292 292 292 293 293 294 294 294 294 295 295 295 296 296 297 298 298 299 299 299 299 299 300 300 300 300 301 301 301 301 301 301 301 302 302 302 302 303 303 303 303 303 303 304 304 304 304 304 305 306 307 309 310 312 314 315 315 315 315 315 315 314 314 314 314 314 315 315 315 316 316 317 319 322 326
292 292 292 292 292 293 293 292 292 292 292 292 292 292 293 293 294 294 294 295 295 295 296 296 297 297 298 298 298 298 298 299 299 299 300 300 300 301 302 302 302 302 303 303 303 303 303 303 303 303 303 303 303 304 304 304 305 305 305 306 307 308 309 310 312 313 315 315 315 315 315 315 315 315 314 314 314 315 315 315 316 316 316 317 320 324
292 292 293 293 293 293 293 292 292 292 292 292 292 293 293 293 294 294 294 295 295 295 296 296 296 297 297 297 297 298 298 298 299 299 300 301 301 302 302 303 303 304 304 304 304 304 304 304 304 303 303 303 304 304 304 305 305 306 306 307 307 308 309 310 311 313 314 315 315 315 315 315 315 315 315 314 314 314 315 315 316 316 315 316 318 321
291 292 292 293 293 292 292 292 292 292 292 292 293 293 294 294 294 294 294 294 295 295 295 296 296 296 296 297 297 297 298 298 298 299 300 301 301 302 303 303 304 304 305 305 304 304 304 303 303 303 303 304 304 304 305 306 306 306 307 307 308 309 309 310 311 312 313 314 315 315 315 315 315 315 315 315 314 315 315 315 315 316 316 316 317 319
290 291 292 292 292 292 292 292 292 292 292 293 293 294 294 294 294 294 294 294 294 294 295 295 295 296 296 296 297 297 297 298 298 299 300 301 302 302 303 303 303 304 304 304 303 303 302 302 303 303 303 304 305 305 306 306 307 307 307 308 308 309 309 310 310 311 312 313 314 315 315 315 315 315 315 315 315 315 315 315 315 316 316 316 316 317
289 290 290 291 291 291 291 292 292 292 293 294 294 294 294 294 294 294 294 294 294 294 294 294 295 295 296 296 296 297 297 298 299 299 300 302 302 303 303 303 303 303 303 303 302 302 302 302 303 303 304 305 305 306 306 307 307 307 307 308 308 309 309 309 310 311 311 312 313 314 314 314 314 315 315 315 315 315 315 315 315 316 316 316 316 316
289 289 290 290 290 291 291 292 292 293 293 293 294 294 294 294 294 294 294 294 294 294 294 295 295 295 296 296 297 297 297 298 299 300 301 302 303 303 303 303 303 303 302 302 303 303 303 303 303 304 305 305 306 306 307 307 307 307 307 307 308 308 308 309 309 310 311 311 312 313 313 314 314 314 315 315 315 315 315 315 315 315 316 316 316 316
290 290 290 290 291 291 292 292 292 293 293 293 293 293 293 293 293 293 294 294 294 294 294 295 295 296 296 296 297 297 298 299 300 301 302 302 303 302 302 302 302 302 302 302 303 303 303 304 304 304 305 305 305 306 306 306 306 306 307 307 307 307 308 308 309 309 310 311 312 312 313 314 314 314 315 315 315 315 314 314 315 315 316 316 316 316
291 291 291 292 292 292 292 292 292 292 292 292 292 292 292 292 293 293 293 294 294 294 295 295 296 296 296 297 297 298 299 300 301 302 302 303 302 302 302 302 302 302 302 303 303 303 303 304 304 304 305 305 305 305 305 305 305 305 306 306 306 306 306 307 308 308 309 310 311 312 313 313 314 314 315 315 315 315 314 314 314 315 315 316 316 316
291 291 292 293 292 292 292 292 292 292 292 292 292 292 292 292 293 293 294 294 295 295 295 296 297 297 297 297 298 299 300 301 301 302 302 302 302 301 302 302 302 303 303 303 303 303 303 303 304 304 305 305 305 305 305 305 305 305 305 304 304 305 305 306 306 307 308 310 311 312 312 313 314 314 314 314 315 314 314 314 314 314 315 315 316 316
290 291 292 292 292 292 292 292 292 292 292 292 292 292 293 293 293 293 294 294 295 295 296 297 298 299 299 298 298 299 300 301 301 301 301 301 301 301 302 302 303 303 303 303 303 303 303 303 304 304 304 304 304 305 304 304 304 304 303 303 303 304 304 305 306 307 308 309 310 311 312 313 313 314 314 314 314 314 314 314 314 314 315 315 316 316
290 290 291 291 292 292 293 293 293 293 293 293 293 293 293 293 293 294 294 295 295 295 296 297 298 299 300 300 299 299 299 300 300 301 300 301 301 301 302 302 302 302 302 302 302 303 303 303 303 304 304 304 304 304 304 303 303 302 302 303 303 303 304 305 306 306 307 308 309 310 311 312 313 313 313 313 314 314 314 314 314 314 314 315 315 316
290 290 291 291 291 292 293 293 293 293 293 293 293 293 293 293 294 294 295 295 295 296 296 297 298 298 299 299 298 298 298 300 300 300 301 301 301 302 302 302 302 302 302 302 302 302 303 303 303 303 303 303 303 303 303 302 302 302 302 302 303 304 304 305 306 307 307 308 309 310 311 312 312 313 313 313 313 313 314 314 314 314 314 314 315 315
291 291 291 291 291 292 292 293 293 293 293 293 293 293 293 294 294 295 295 295 296 296 296 296 297 297 297 298 298 298 298 299 300 300 301 301 301 301 302 302 302 302 302 302 302 303 303 303 302 302 302 302 302 302 301 301 301 301 302 302 303 304 305 305 306 307 308 308 309 310 311 311 312 312 312 313 313 313 314 314 314 314 314 314 315 315
291 291 291 291 291 291 292 292 292 293 293 293 293 294 294 295 295 295 296 296 296 296 296 297 297 297 297 297 298 298 299 300 300 300 301 301 301 302 302 302 302 301 302 302 302 302 302 302 301 301 301 301 301 300 300 301 301 301 302 302 303 304 305 305 306 307 308 309 310 310 311 311 312 312 312 313 313 314 314 314 314 314 314 314 315 315
291 291 291 291 291 291 292 292 292 293 293 294 294 294 295 295 295 296 296 296 296 296 296 297 297 297 297 297 298 298 299 300 300 300 300 301 301 302 302 302 301 301 301 301 302 302 301 301 300 300 300 300 300 300 300 300 300 301 301 302 303 304 305 305 306 307 308 309 310 311 311 312 312 313 313 313 314 314 314 314 315 315 315 315 315 315
291 291 291 291 291 292 292 292 293 293 294 295 295 294 294 294 295 295 295 296 296 296 296 296 297 297 297 298 299 299 299 299 299 299 299 300 301 301 301 301 300 300 300 301 301 300 300 300 300 299 299 299 299 299 299 299 299 300 301 302 303 304 304 306 307 308 309 310 311 312 312 312 313 314 314 314 315 315 315 315 315 315 315 315 316 316
290 290 290 291 291 291 292 293 293 294 294 295 295 294 294 294 295 295 295 296 296 296 296 296 296 296 297 298 298 299 299 298 298 299 299 300 301 301 300 300 300 300 300 300 300 299 299 299 299 299 298 298 298 298 298 298 298 299 300 301 302 303 304 306 307 308 309 311 312 312 313 313 314 315 315 316 316 316 316 316 316 316 316 316 316 317
289 290 290 290 290 291 291 292 292 293 293 294 294 294 294 294 294 295 295 295 295 296 296 296 296 297 297 298 298 299 299 298 298 298 299 300 300 299 299 299 299 299 299 299 299 299 298 298 298 298 297 297 297 297 297 297 298 299 300 301 302 303 304 305 306 308 309 311 312 313 314 315 316 316 317 317 317 317 317 317 317 317 317 317 317 317
289 289 290 290 290 291 291 291 292 292 292 293 293 293 293 294 294 294 294 294 295 295 296 296 296 297 297 297 298 299 299 298 298 298 298 299 299 298 298 298 299 299 299 299 299 298 297 297 297 296 296 296 296 296 296 296 297 298 299 300 301 302 304 305 306 307 309 311 312 314 315 316 317 318 318 318 318 318 318 318 318 318 318 318 318 318
289 289 290 290 290 290 291 291 291 292 292 292 293 293 293 293 294 294 294 294 295 295 296 297 297 297 297 297 297 297 297 298 298 297 298 298 298 298 298 298 298 298 299 299 298 297 296 296 295 295 295 295 295 295 296 296 297 297 298 299 300 301 303 304 305 306 308 310 312 314 316 318 319 320 320 320 320 320 319 319 319 319 319 318 318 319
290 290 290 290 290 291 291 291 291 292 292 292 292 293 293 293 293 294 294 294 295 295 296 297 297 297 297 297 297 297 297 297 298 297 297 298 298 298 298 298 298 298 298 298 297 295 295 295 294 294 294 294 294 294 295 296 296 297 297 298 299 300 301 302 303 304 306 308 311 314 317 319 321 321 321 321 321 321 320 320 320 320 319 318 318 319
290 290 290 290 291 291 291 291 291 292 292 292 293 293 293 293 294 294 294 294 295 295 297 297 298 298 298 297 297 297 297 297 297 297 297 297 297 298 298 298 298 298 297 297 296 296 295 294 293 293 292 292 293 293 294 295 295 296 297 298 298 299 300 300 301 302 303 305 308 312 316 319 321 321 322 322 321 321 321 320 320 319 318 318 318 319
291 291 291 291 291 291 291 291 291 292 292 292 293 293 293 294 294 294 295 295 295 296 297 297 298 298 298 298 298 298 298 297 298 298 297 297 297 298 298 298 298 297 297 297 297 297 297 295 293 292 291 291 292 292 292 293 293 294 295 296 297 297 298 298 299 300 300 302 305 309 313 316 319 320 321 321 321 321 320 320 318 317 317 317 317 318
291 291 291 291 291 291 291 292 292 292 292 293 293 293 294 294 294 295 295 295 296 296 297 297 298 298 299 299 299 299 298 298 298 298 298 297 297 298 298 298 297 297 297 297 297 297 297 296 294 292 291 291 291 291 291 291 292 292 293 294 295 295 296 296 297 298 298 299 301 304 308 312 315 317 318 319 320 320 319 318 317 316 316 316 316 316
292 292 292 292 292 292 292 292 292 293 293 293 293 293 294 294 294 295 295 295 296 296 297 297 298 298 299 299 299 299 298 298 298 298 298 297 297 298 298 298 297 296 296 297 297 298 297 296 294 292 291 290 290 290 290 290 290 291 291 292 293 293 294 295 295 296 297 297 298 300 303 306 309 312 314 315 316 317 317 317 316 316 315 315 314 314
292 292 293 293 293 293 293 293 293 293 293 293 294 294 294 294 294 295 295 295 296 296 297 297 297 298 299 299 299 299 299 298 298 298 298 297 298 298 298 297 297 296 296 295 296 296 296 295 294 292 291 290 290 289 289 289 289 290 290 290 291 292 293 293 294 294 295 295 296 297 299 301 304 306 308 310 311 312 313 313 314 315 315 314 313 312
293 293 293 293 294 294 294 294 294 294 294 294 294 294 294 294 294 295 295 295 296 296 296 297 297 298 298 299 299 299 298 298 299 298 298 297 297 298 298 297 297 296 296 295 295 295 295 295 294 293 292 291 290 289 289 289 289 289 289 289 290 290 291 292 292 293 293 294 294 295 296 298 300 301 303 305 306 307 308 309 310 311 312 312 311 310
293 293 294 294 294 294 295 294 294 294 295 295 295 295 295 295 295 295 295 296 296 296 296 297 297 297 298 298 299 299 299 299 299 299 298 297 297 298 297 297 296 296 296 296 295 294 294 294 293 293 293 292 291 290 289 289 288 288 288 289 289 289 290 290 291 291 292 292 292 293 294 295 296 298 299 301 302 303 304 305 306 307 308 308 308 308
294 294 294 294 294 295 295 295 295 295 295 295 296 296 296 296 296 296 296 296 297 297 297 297 297 298 298 298 298 299 299 299 299 299 298 298 298 297 297 297 296 296 296 296 295 295 294 294 293 293 293 293 291 290 290 289 289 288 288 288 289 289 289 289 290 290 291 291 291 291 292 293 294 295 296 297 299 300 301 302 302 303 303 304 304 305
294 294 294 294 295 295 295 295 295 296 296 296 296 296 296 296 297 297 297 297 297 297 297 298 298 298 298 299 299 299 299 299 299 299 298 298 298 297 297 296 296 296 296 295 295 294 294 294 293 293 293 292 291 291 290 290 289 288 288 288 288 288 289 289 289 289 290 290 290 290 291 291 292 293 294 295 296 297 298 298 299 299 300 300 300 301
294 295 295 295 295 295 295 295 296 296 296 296 296 296 296 296 296 296 296 296 296 296 297 297 297 297 298 298 298 299 299 299 299 299 298 297 297 297 297 296 296 295 295 295 294 294 294 294 293 292 292 291 291 290 290 290 289 289 288 288 288 288 288 288 289 289 289 289 290 290 290 290 291 291 292 293 294 295 295 296 296 296 297 297 297 298
295 295 295 295 295 295 295 295 296 296 296 296 296 296 296 295 295 295 295 295 295 295 295 295 295 296 296 296 297 297 298 299 299 298 298 297 297 297 296 296 295 294 294 294 294 294 294 294 293 292 291 290 290 290 289 289 289 289 288 288 288 288 288 288 288 288 289 289 289 289 289 290 290 290 291 291 292 292 293 293 294 295 295 295 295 295
295 295 295 295 295 295 296 296 296 296 295 295 295 295 294 294 294 294 294 294 294 294 294 294 294 294 294 294 295 296 297 297 298 297 296 296 296 296 295 295 294 293 293 293 293 294 294 293 293 292 291 290 290 289 289 289 289 289 289 288 288 287 287 287 287 288 288 288 288 289 289 289 289 290 290 290 290 291 291 291 292 293 293 294 294 294
296 295 295 296 296 296 296 295 295 295 294 294 294 293 293 293 292 292 292 292 292 292 292 292 292 292 292 292 293 293 294 295 295 295 295 295 295 294 294 293 293 293 293 292 292 292 292 291 291 290 290 290 289 288 288 288 288 288 288 288 287 287 287 287 287 287 288 288 288 288 288 289 289 289 289 290 290 290 290 291 291 291 292 292 293 293
296 296 296 295 295 294 294 294 293 293 293 293 292 292 292 292 292 291 291 291 291 291 291 291 291 291 290 290 290 291 291 292 292 293 293 293 293 293 293 292 292 292 292 291 290 290 290 290 290 289 289 288 288 288 287 287 287 287 287 287 287 287 287 287 287 287 287 287 288 288 288 288 288 288 289 289 289 290 290 290 290 291 291 291 291 292
296 295 294 293 293 292 292 292 292 292 292 291 291 291 291 291 291 291 291 291 291 291 291 291 291 290 290 289 289 289 289 290 290 291 291 292 292 292 292 292 291 291 291 290 289 288 288 288 288 288 288 288 287 287 286 286 285 285 286 286 287 287 287 286 286 287 287 287 287 287 288 288 288 288 288 288 289 289 289 290 290 290 290 290 290 290
293 292 292 291 291 291 291 291 291 291 291 291 291 291 291 291 291 291 291 291 291 291 291 291 290 290 290 289 288 288 288 288 289 289 290 290 290 291 291 290 290 290 289 289 288 287 287 287 286 286 286 286 286 286 285 285 285 284 284 285 285 285 285 285 286 286 287 287 287 287 287 287 288 288 288 288 288 288 289 289 289 289 290 290 290 290
291 291 291 290 290 290 290 291 291 291 291 291 291 291 291 291 291 292 292 291 291 291 291 290 290 290 289 289 288 288 287 287 287 287 288 288 289 289 289 289 288 288 288 287 287 287 286 286 286 285 285 285 285 285 285 285 285 284 284 284 284 284 284 284 285 286 286 287 287 287 287 287 287 288 287 287 287 288 288 288 288 289 289 289 289 290
290 290 290 290 290 291 291 291 291 291 291 291 291 291 291 291 291 291 291 291 291 291 291 290 290 290 289 289 288 288 287 287 286 286 286 286 287 287 287 287 287 287 286 286 286 286 286 286 286 285 285 285 285 285 285 285 285 284 284 284 284 284 284 284 284 285 286 286 286 287 287 287 287 287 287 287 287 287 287 287 288 288 288 288 289 289
290 290 290 290 290 291 291 291 290 291 291 291 291 291 291 291 291 291 291 291 291 291 290 290 290 289 289 289 288 288 287 287 286 286 285 285 285 285 286 286 286 285 285 285 284 284 284 285 285 285 285 285 285 284 284 284 284 284 284 284 284 284 284 284 284 285 285 286 286 287 287 287 287 287 287 287 287 287 287 287 287 287 288 288 288 288
290 290 290 290 290 291 291 290 291 291 291 291 291 290 291 291 291 291 291 291 290 290 290 290 289 289 289 288 288 287 287 286 286 286 285 285 285 285 285 285 285 284 284 284 284 284 283 283 284 284 284 284 284 284 284 284 284 284 284 284 284 284 284 284 284 284 285 285 286 286 287 287 287 287 287 287 287 287 287 287 287 287 288 288 288 288
290 290 290 290 290 291 291 291 291 291 291 291 290 290 290 290 290 290 290 290 290 290 290 289 289 289 288 288 288 287 287 287 286 286 285 285 285 285 285 285 285 284 284 284 284 284 283 283 283 283 283 283 283 283 283 283 283 283 283 284 284 284 284 284 284 284 285 285 285 286 286 286 286 287 287 287 287 286 286 287 287 287 287 288 288 288
290 290 290 290 290 291 291 291 291 290 290 290 290 290 290 290 290 290 290 290 290 289 289 289 289 288 288 288 287 287 287 287 286 286 286 286 286 286 286 285 285 285 285 285 285 285 284 284 283 283 282 282 283 283 283 283 283 283 283 283 283 284 284 284 284 284 284 285 285 285 285 286 286 286 286 286 286 286 286 286 287 287 287 287 288 288
290 290 290 290 290 290 290 290 290 290 290 290 289 289 289 289 289 289 289 289 289 289 289 289 288 288 288 288 288 287 287 287 287 286 286 286 286 286 287 287 287 287 287 287 287 286 286 285 284 284 283 282 282 282 283 283 283 283 283 283 283 283 283 283 284 284 284 284 285 285 285 285 285 286 286 286 286 286 286 286 286 286 287 287 287 287
Wind_Speed
34 35 34 34 34 34 34 33 32 32 32 32 32 31 31 30 30 31 32 33 34 34 35 35 35 34 34 34 35 37 38 39 40 40 40 40 39 38 38 38 39 40 40 39 36 33 31 30 29 29 29 30 30 31 32 32 33 34 34 34 34 34 34 34 34 34 34 34 34 34 34 34 35 35 36 37 38 38 37 34 32 31 31 34 39 45
34 34 34 34 34 34 34 34 32 32 32 33 32 31 30 30 30 31 32 33 34 34 34 35 35 35 35 35 36 38 40 40 40 40 39 39 38 38 37 38 40 41 42 41 40 38 36 35 35 35 34 34 35 35 35 35 36 36 36 36 36 36 36 35 35 35 35 34 34 34 35 35 36 36 37 38 39 39 38 36 34 32 32 33 37 41
33 33 34 34 35 34 35 34 33 33 33 33 32 31 31 31 31 31 31 32 34 34 34 34 35 35 36 35 36 38 40 40 40 39 38 37 37 36 36 37 39 40 41 40 39 38 38 38 39 39 39 39 40 40 40 40 40 39 39 38 38 38 38 38 39 39 38 38 37 37 38 38 38 38 39 40 41 41 40 38 36 34 33 34 37 40
31 32 33 33 34 34 35 35 34 34 33 33 33 32 32 32 32 32 32 32 33 34 35 34 35 35 36 36 36 36 37 38 38 37 36 36 35 35 35 36 37 40 41 41 40 39 39 40 41 41 42 42 42 43 43 43 42 41 41 40 40 39 39 40 41 42 42 42 42 42 42 41 40 40 41 42 43 43 42 40 38 36 35 36 38 40
31 30 32 31 31 33 35 34 33 33 32 32 32 32 32 32 32 32 32 32 33 34 35 34 34 34 34 34 34 34 34 35 35 36 36 35 36 36 36 37 38 41 43 44 43 43 42 42 42 42 42 42 43 42 42 42 41 41 41 41 40 40 40 41 42 43 44 44 45 45 45 44 43 42 43 44 45 44 43 42 40 38 37 38 39 41
30 30 31 30 30 32 32 32 31 31 31 30 30 30 30 30 30 30 31 32 33 33 34 33 33 33 33 33 32 32 33 34 35 36 37 37 38 38 39 39 41 43 44 45 45 44 43 42 42 41 41 41 41 41 40 40 40 40 41 41 41 41 42 42 43 43 44 45 45 46 45 45 44 44 44 45 45 45 44 43 42 40 39 39 40 42
30 31 31 31 32 32 31 30 30 29 29 29 29 29 29 29 29 29 30 30 31 32 32 33 33 32 32 32 32 32 33 35 36 37 38 39 39 39 40 41 42 43 43 43 43 42 41 40 39 39 39 39 39 39 39 39 39 40 40 41 42 42 43 43 43 44 44 45 45 45 46 45 45 45 45 45 46 45 45 45 44 43 41 40 40 42
27 29 30 30 31 31 30 29 29 28 29 28 29 29 29 29 29 29 29 29 29 30 31 32 32 32 32 31 32 32 32 34 35 36 36 36 36 37 37 38 38 39 39 39 38 37 37 36 36 36 36 37 37 37 37 38 38 39 40 41 42 42 43 43 44 44 44 45 45 45 46 46 46 45 46 46 46 46 46 46 46 45 43 42 41 42
24 25 27 28 28 27 27 28 29 29 29 30 30 29 28 27 28 28 28 27 28 29 29 30 30 30 30 30 30 31 32 33 33 33 33 33 33 33 32 33 33 33 33 33 32 33 33 34 34 35 35 36 36 37 37 37 37 38 39 40 41 42 43 43 44 44 44 44 45 46 46 46 46 46 47 47 47 46 47 47 47 47 46 44 43 43
26 26 25 26 26 26 24 26 28 30 30 30 30 30 28 27 26 26 26 27 28 28 28 28 28 29 29 29 29 30 31 32 33 33 33 33 33 33 32 32 31 31 31 31 32 32 34 34 35 35 35 36 36 36 36 37 37 38 39 40 41 42 42 43 43 43 43 44 45 45 46 47 47 47 48 48 48 47 47 48 49 49 48 47 45 44
27 27 26 25 26 26 26 27 28 30 30 30 30 30 29 27 25 23 22 24 27 28 28 28 28 28 28 28 28 29 29 30 30 31 32 32 33 33 33 33 33 33 33 33 34 35 36 36 36 36 36 36 36 36 36 36 37 38 38 39 40 41 41 42 42 42 42 43 44 45 46 47 48 48 48 49 48 48 48 49 50 50 50 49 48 46
26 26 26 26 26 27 27 28 29 28 28 27 26 25 26 27 26 23 22 23 25 27 28 29 29 28 28 27 27 27 28 28 28 29 28 28 28 29 30 30 30 30 30 30 32 33 34 34 34 34 34 34 34 34 35 35 36 37 37 38 38 39 40 40 41 41 42 43 44 45 46 47 48 48 49 49 49 49 49 50 50 51 52 51 50 49
26 26 26 26 26 26 26 26 26 25 25 24 21 18 20 25 26 25 25 25 26 27 27 27 27 27 27 27 27 27 27 28 28 28 27 26 25 25 25 25 24 24 24 24 25 25 26 27 28 29 29 30 31 32 32 33 34 34 35 36 36 37 38 39 40 41 42 43 44 45 46 47 48 49 49 50 50 50 50 50 51 52 53 53 53 51
23 24 24 22 23 24 25 24 22 21 23 24 23 23 24 26 26 26 26 25 26 27 26 26 26 27 27 27 27 27 27 28 28 27 26 25 25 24 23 23 23 23 22 22 21 21 21 21 22 23 25 26 27 28 29 30 30 31 32 33 34 35 36 38 39 40 42 43 44 45 47 48 48 49 50 50 51 51 51 50 51 52 53 54 54 53
20 18 14 13 15 19 22 23 23 23 24 26 27 27 27 27 26 25 23 23 24 26 26 26 26 27 28 28 27 27 27 26 25 24 24 24 23 22 22 23 24 24 22 21 21 20 19 19 19 20 21 22 23 24 25 26 27 28 28 29 31 32 34 36 37 40 41 43 45 46 47 48 49 50 50 51 51 51 51 51 51 52 53 55 55 55
21 17 10 10 12 17 22 24 24 24 26 28 28 27 26 25 25 24 22 22 23 23 22 19 18 19 22 26 27 26 25 24 23 23 23 23 22 21 21 22 23 23 22 21 20 20 19 19 19 20 20 20 22 23 23 24 24 24 25 26 27 29 30 33 35 38 41 43 45 46 48 48 49 50 50 51 51 52 52 51 52 52 53 55 56 56
23 20 16 12 13 18 24 26 27 27 27 27 27 27 26 25 24 24 23 23 22 20 17 12 8 8 10 20 25 24 23 21 21 22 22 22 22 22 21 22 23 23 22 20 20 19 19 19 19 19 19 19 20 21 21 22 22 22 22 23 24 26 28 30 34 37 40 43 45 47 48 48 49 50 50 51 52 52 52 52 52 53 54 55 56 56
24 23 21 17 17 20 25 26 27 28 28 27 26 26 26 26 25 25 24 23 21 17 14 10 7 6 6 7 15 23 21 20 20 21 21 22 22 22 21 21 22 22 22 21 20 20 19 19 19 19 19 19 19 19 20 20 20 19 19 20 21 24 26 29 32 36 39 42 45 47 48 49 49 50 51 51 51 52 52 52 52 52 53 55 56 56
24 25 23 21 21 23 24 24 26 26 26 25 24 24 24 25 26 25 25 24 22 19 16 11 9 9 9 13 19 23 22 19 19 20 19 20 21 20 19 20 21 22 21 20 20 19 19 19 19 19 19 19 19 19 19 19 18 17 18 19 20 23 25 28 31 35 38 42 45 47 48 49 50 50 51 51 51 51 51 51 51 52 53 54 55 56
27 27 26 25 25 25 25 27 27 27 26 26 25 24 24 25 25 25 24 23 23 23 22 17 15 15 19 22 24 24 22 19 18 18 18 19 20 20 19 20 21 20 19 19 19 18 18 18 17 17 18 18 19 19 19 18 17 17 17 19 20 22 24 27 30 34 37 41 44 46 48 49 50 50 50 50 50 50 50 50 50 51 52 53 54 55
29 31 33 32 29 27 26 29 31 31 30 30 28 26 24 23 23 23 23 23 23 23 22 19 19 21 24 24 25 24 21 19 17 16 15 15 17 18 19 19 19 17 17 17 18 17 16 16 15 15 16 17 18 18 18 17 16 17 18 19 20 22 24 26 29 32 36 39 43 45 47 48 49 49 49 49 49 49 49 49 49 49 50 51 52 53
32 33 36 36 34 31 31 32 33 33 32 30 29 26 22 21 21 20 20 20 19 19 19 19 21 24 25 25 25 23 21 20 20 17 13 8 11 16 16 15 13 13 15 17 18 17 15 15 15 15 16 17 18 18 17 16 16 17 17 18 19 21 23 25 28 31 35 38 41 44 46 47 48 48 48 48 47 47 47 47 47 48 49 49 50 51
39 39 39 37 35 33 33 33 33 31 29 29 29 28 26 23 20 18 16 15 16 17 18 20 23 25 25 26 25 24 23 22 21 19 15 9 10 14 13 11 11 13 17 18 17 16 15 15 15 15 16 17 17 16 15 14 15 15 16 17 18 19 21 24 27 30 34 38 41 44 45 46 46 46 46 45 45 45 45 45 45 46 47 48 48 49
41 41 40 39 37 35 33 32 30 28 27 27 28 27 26 24 22 20 18 18 19 20 21 23 23 23 24 25 26 25 23 21 21 19 15 9 10 15 17 15 16 18 20 20 18 16 15 14 13 13 14 15 14 13 12 12 13 13 14 15 16 18 20 22 25 29 33 37 41 43 44 44 44 43 43 42 42 42 42 43 43 44 45 46 46 47
39 39 38 38 37 36 36 35 34 32 29 28 28 27 27 26 25 24 23 24 24 23 23 24 20 17 19 19 21 21 20 19 18 17 14 10 12 16 19 19 19 19 20 21 19 16 13 12 12 12 12 12 12 11 10 10 10 11 11 12 14 16 18 20 23 26 30 34 38 40 41 41 41 40 39 39 39 39 39 40 41 42 43 43 43 44
39 38 38 38 38 38 38 38 37 37 35 33 32 31 30 28 27 25 25 25 25 24 23 19 15 14 17 20 20 19 19 18 16 16 15 13 13 16 21 20 18 18 18 20 18 14 11 10 10 10 10 11 10 9 8 8 8 8 9 10 11 13 15 17 20 22 25 29 33 36 37 37 36 35 35 35 35 36 36 37 38 39 40 40 40 41
43 42 42 41 41 41 41 41 41 40 40 39 38 36 33 30 27 24 22 24 25 22 17 12 10 12 14 16 18 21 23 20 18 17 17 15 14 15 19 19 16 15 18 17 14 10 9 8 8 8 9 9 8 8 7 6 6 6 7 8 9 11 13 15 18 20 21 23 26 29 31 31 31 31 31 31 31 32 33 35 36 36 37 37 38 39
47 47 46 45 45 44 44 44 43 43 43 42 42 40 37 33 27 23 21 26 26 21 14 11 11 10 10 9 14 21 24 22 19 17 17 16 12 12 18 17 16 15 16 13 10 8 8 7 6 6 6 7 6 6 6 5 5 5 5 7 8 10 12 14 17 19 21 22 21 22 24 25 26 26 26 26 27 28 30 31 32 33 34 35 37 39
47 48 48 48 48 48 47 47 46 46 45 45 44 42 40 36 30 26 26 28 26 19 13 11 10 10 9 9 15 21 22 23 21 18 17 14 11 12 18 16 14 13 12 9 7 7 7 6 4 4 4 4 4 5 5 5 5 5 6 7 9 11 13 14 17 20 23 24 21 16 15 17 19 20 21 22 23 25 26 27 29 30 32 35 37 38
41 43 44 46 47 47 47 47 46 46 46 46 45 44 41 38 34 31 30 29 24 18 13 11 10 10 8 9 11 12 14 20 22 20 18 12 9 12 16 14 13 13 11 7 5 5 5 4 2 2 3 4 5 5 6 7 7 8 8 9 11 13 14 16 18 20 24 27 25 19 10 7 10 14 17 19 21 22 23 25 27 29 31 32 33 33
35 36 37 40 41 42 42 42 42 42 43 43 43 42 40 38 36 33 31 29 26 22 19 16 14 13 10 7 6 5 6 17 21 20 20 14 10 12 15 12 11 13 14 10 4 2 3 2 1 1 4 5 6 7 8 8 9 10 10 11 13 14 16 17 19 20 23 26 27 25 20 11 3 4 10 14 17 20 22 24 26 27 28 27 26 24
32 32 33 34 35 35 35 35 36 36 36 36 36 36 37 36 35 33 31 30 28 26 24 22 20 18 15 11 8 7 8 17 20 19 20 15 13 14 15 12 11 13 16 13 7 3 2 1 1 1 4 6 7 8 9 10 11 12 12 13 15 16 18 19 20 21 22 23 26 28 27 24 18 12 8 8 11 15 20 24 27 28 27 26 23 22
31 30 30 30 30 29 29 30 30 30 30 30 30 31 33 33 33 32 31 30 29 28 27 25 23 21 19 16 14 15 19 22 21 19 20 17 13 12 13 13 12 13 15 13 9 5 3 1 2 1 2 5 7 9 11 12 13 14 14 15 15 17 19 20 21 22 22 23 24 26 28 29 28 25 21 18 16 16 19 23 26 29 29 28 26 25
30 29 28 27 26 26 26 26 27 27 27 28 28 29 29 30 31 31 31 30 30 30 29 28 25 23 20 15 13 17 24 25 22 19 21 20 15 11 12 12 13 13 12 10 8 5 2 2 3 2 1 3 7 10 12 13 14 15 16 16 17 18 20 21 22 22 23 24 24 26 27 30 31 30 29 26 23 22 21 22 23 26 28 30 30 30
28 27 26 25 24 24 25 27 27 26 26 26 27 28 28 28 29 30 31 31 31 31 31 31 30 27 24 18 13 14 22 25 23 21 22 23 19 14 12 13 14 14 11 9 6 4 2 3 4 3 2 2 5 9 12 14 15 16 18 19 20 20 21 21 21 22 24 25 25 26 27 29 31 32 32 31 29 27 26 25 24 24 26 28 30 31
24 24 25 24 24 24 24 25 25 24 24 24 25 26 27 28 28 29 30 31 31 31 31 32 31 31 29 27 23 21 24 25 24 23 24 26 24 18 13 13 15 15 12 9 7 5 3 3 4 4 3 2 2 4 9 12 15 17 19 21 22 23 23 23 22 22 23 24 25 26 26 27 29 30 31 32 33 33 33 31 30 28 27 27 29 31
22 22 24 23 23 23 22 22 23 23 23 23 24 25 26 27 28 28 28 29 28 28 29 29 30 30 31 31 30 30 29 28 25 23 25 27 27 23 16 13 15 17 14 11 8 7 5 4 3 3 2 1 1 2 4 9 13 16 19 21 22 24 25 25 24 24 24 24 25 25 26 27 27 28 28 30 33 35 36 36 35 33 33 32 32 33
19 20 22 23 22 22 22 22 22 23 23 23 24 25 27 28 28 27 27 27 27 27 27 28 29 30 32 33 34 35 34 31 28 25 26 28 29 26 19 15 15 16 15 13 12 10 7 5 4 3 2 2 3 4 5 7 10 13 16 20 23 25 26 26 25 25 25 24 25 26 27 28 29 29 29 30 32 34 35 35 35 35 36 37 38 37
19 20 21 23 23 22 22 22 23 23 24 25 26 27 27 26 26 26 26 26 27 28 29 29 28 28 30 32 33 34 34 32 30 27 27 29 29 26 21 17 15 14 14 13 13 11 8 5 3 3 3 3 3 5 7 8 9 10 14 18 23 25 26 26 26 25 25 25 25 26 28 30 31 32 31 31 32 32 31 30 30 31 33 36 38 39
17 18 20 22 23 23 22 22 22 22 22 23 23 23 22 22 22 23 24 24 25 25 25 23 22 21 21 21 21 21 22 23 24 25 27 28 27 24 20 18 16 15 15 13 12 9 8 6 5 5 5 5 4 4 6 8 9 10 12 13 15 17 22 25 25 25 26 26 26 27 28 30 31 32 33 33 33 32 30 29 27 27 29 31 32 34
15 16 18 19 20 20 21 19 19 19 19 18 17 17 17 17 17 17 17 17 17 16 16 15 13 12 10 9 9 9 11 14 18 21 24 25 24 22 21 19 18 17 16 14 12 11 10 9 8 8 7 8 8 8 8 8 9 11 12 12 11 14 20 23 25 25 26 27 27 27 28 29 31 32 33 34 34 33 33 32 31 30 30 30 30 30
14 13 13 13 13 13 13 14 14 15 15 15 14 14 14 14 14 13 12 11 11 11 12 13 12 12 11 11 12 11 11 12 14 17 19 21 21 21 21 20 20 19 18 17 15 14 13 12 11 9 9 9 9 8 8 9 11 12 12 11 11 14 19 22 24 25 25 26 27 28 28 29 30 31 33 34 34 34 35 35 34 33 33 33 32 32
12 9 8 8 9 10 10 10 11 11 11 11 12 12 13 13 13 13 12 11 11 11 12 12 12 12 12 12 13 14 15 15 15 16 17 19 20 21 21 21 21 21 20 19 16 15 14 13 12 10 9 10 10 10 8 9 11 12 12 11 11 10 8 13 19 23 24 24 26 27 28 28 29 31 33 34 35 36 36 36 35 34 34 35 36 36
6 6 6 7 8 8 8 8 8 9 9 9 9 10 11 11 12 12 12 11 11 11 11 11 12 13 12 11 12 13 16 18 19 19 20 20 21 22 23 22 21 21 21 20 17 15 14 14 13 12 11 12 12 12 11 11 12 13 14 15 15 14 10 9 14 19 21 23 24 25 26 27 29 32 34 35 35 35 36 36 36 36 35 37 38 38
6 6 6 6 7 7 7 7 8 8 8 8 8 8 8 9 10 10 10 10 10 10 11 12 12 11 9 10 11 12 14 16 19 21 22 23 24 25 25 24 24 23 22 21 19 17 15 13 12 13 14 15 15 14 13 13 14 14 15 16 18 18 17 16 17 18 18 21 22 24 25 26 29 31 32 32 32 33 34 34 34 34 35 36 38 39
5 5 5 6 6 6 6 7 7 7 7 6 6 6 7 7 8 8 9 10 10 9 9 11 11 9 6 7 9 11 11 13 15 18 21 23 25 26 27 27 27 26 25 24 22 21 19 16 14 13 15 15 16 16 15 15 15 14 14 16 17 18 19 20 19 19 19 19 20 22 23 27 29 30 29 28 29 31 32 32 33 33 34 35 37 38
5 5 5 5 5 5 5 6 6 6 6 6 6 6 6 7 8 8 9 10 10 9 10 10 11 10 8 8 9 10 10 11 13 15 17 20 24 27 28 29 30 30 30 29 27 25 23 20 17 15 15 14 13 13 14 15 15 14 14 15 17 18 18 19 20 20 21 20 20 20 22 26 28 28 27 27 28 29 30 32 32 32 33 34 36 37
4 4 4 5 5 5 5 6 6 6 6 7 7 7 8 8 9 9 9 9 10 10 10 10 10 10 9 9 9 10 11 12 13 14 15 18 21 25 27 29 30 31 31 31 31 30 29 27 24 21 18 15 12 11 13 15 15 15 14 15 17 18 18 19 20 22 23 23 22 22 23 24 24 24 24 25 26 26 27 29 31 31 32 33 34 35
4 4 5 5 5 5 6 6 7 7 7 8 8 9 9 10 10 10 9 10 10 10 10 10 10 9 8 8 9 11 12 13 13 14 15 17 19 21 24 26 27 28 29 30 30 31 31 31 30 28 24 20 16 14 14 14 15 15 15 15 17 18 18 19 20 21 23 24 25 25 26 25 25 25 25 24 24 23 24 26 29 30 31 32 33 33
5 5 6 6 6 6 6 7 7 7 8 9 10 10 10 11 11 11 11 11 11 10 10 10 10 9 8 8 9 11 11 12 13 13 14 16 18 19 21 22 23 23 23 22 23 24 25 26 27 28 29 26 21 17 14 14 15 16 16 16 17 18 19 19 19 21 23 24 25 26 27 26 25 25 25 24 23 22 23 24 26 28 28 29 31 32
7 7 7 7 7 7 7 8 8 8 9 10 10 11 11 11 11 11 12 11 11 11 11 11 11 10 9 9 9 10 11 12 12 12 12 14 16 17 18 19 20 19 17 13 13 13 12 12 13 18 23 26 25 20 16 13 13 15 15 16 17 18 19 19 20 22 23 24 25 26 26 25 24 23 23 23 22 21 21 21 23 25 26 28 30 31
Wind_Direction
271 273 274 274 274 274 273 272 271 271 271 271 270 270 270 269 268 268 270 271 272 273 273 273 273 272 272 273 273 274 276 277 277 277 276 274 273 271 271 271 272 273 274 275 275 275 275 274 273 271 269 267 266 267 267 267 267 266 265 263 262 261 260 259 258 258 258 258 259 259 259 261 262 264 265 266 267 268 269 269 268 265 263 260 254 248
269 271 272 272 272 272 273 272 271 271 271 271 271 270 270 270 269 269 270 271 272 273 273 273 273 272 272 272 272 274 275 276 275 275 274 273 271 269 267 267 268 270 272 273 274 275 276 276 276 275 273 272 270 270 270 269 268 267 266 265 264 263 262 261 260 259 259 258 258 258 258 258 258 259 260 261 262 264 265 266 266 264 262 258 255 251
269 270 270 271 271 271 272 273 272 271 271 271 271 271 270 269 269 269 269 271 272 273 272 272 271 271 271 271 271 272 273 274 274 273 272 271 269 267 266 266 267 268 270 272 273 274 274 274 274 274 274 273 272 272 272 271 270 269 268 267 267 266 265 264 263 263 262 261 260 259 259 258 257 256 256 257 258 259 260 262 263 262 259 256 253 250
266 267 268 269 269 269 269 271 272 271 271 271 271 270 270 269 268 268 268 269 271 272 271 270 269 269 269 270 270 270 271 272 272 271 270 270 268 268 267 267 267 268 270 271 272 273 273 272 273 273 273 273 273 273 273 272 271 270 270 270 269 269 268 266 266 265 265 264 264 263 263 262 260 258 257 257 257 257 258 259 259 259 257 254 251 249
263 262 264 266 267 268 268 269 269 270 270 270 270 270 269 268 267 267 267 268 269 270 270 269 268 267 267 268 268 268 269 270 270 270 270 270 269 269 268 268 268 269 270 271 272 272 272 271 271 272 272 272 273 272 272 271 270 270 270 270 270 269 268 267 266 266 266 266 266 266 266 266 264 263 261 260 259 259 258 258 258 258 257 254 251 249
262 260 262 264 266 267 268 267 267 267 268 269 269 268 268 266 265 264 264 265 266 268 269 269 268 267 266 266 266 267 268 269 270 270 270 270 270 269 268 268 268 269 270 270 271 271 270 270 270 270 271 271 271 271 270 269 269 269 269 270 269 269 268 267 266 266 266 266 267 267 268 268 267 266 265 263 262 261 260 259 259 259 257 255 253 249
264 262 262 263 264 264 263 263 263 264 267 269 270 269 268 265 263 261 260 261 263 266 268 269 268 267 266 265 266 267 268 269 270 271 271 270 269 268 267 267 267 268 268 268 268 268 268 268 268 269 270 270 270 270 269 269 268 269 269 269 268 268 267 267 266 266 266 266 266 267 268 268 269 268 267 266 264 262 261 260 260 259 258 256 253 250
268 266 263 261 259 259 258 258 260 263 266 268 269 269 267 265 263 261 260 260 261 263 266 267 267 266 265 265 265 266 267 269 269 270 270 269 268 267 267 266 266 266 266 266 266 266 266 267 267 268 268 269 269 269 269 268 268 268 268 267 267 267 267 267 266 266 266 265 266 266 267 268 269 269 269 268 266 263 262 260 260 259 259 256 254 251
272 270 265 259 255 254 256 258 260 263 265 266 266 265 264 263 262 262 262 261 260 261 263 265 266 266 265 265 265 266 266 267 267 268 267 267 267 267 266 266 265 265 264 263 263 263 265 266 266 267 267 268 268 269 268 268 267 267 266 266 265 266 266 266 267 266 266 265 265 266 267 268 269 270 270 269 267 265 262 261 260 259 259 257 254 251
271 271 268 263 258 256 259 262 264 266 266 263 261 260 259 260 261 262 262 262 261 261 261 263 264 265 266 266 265 265 266 266 266 266 265 264 264 264 265 264 264 263 262 262 262 263 264 265 265 266 266 267 267 267 267 267 266 265 264 264 264 265 266 266 267 267 266 265 265 265 266 267 269 270 270 270 269 266 264 261 260 259 259 258 255 252
267 267 268 268 266 265 265 266 268 267 265 261 258 257 256 256 258 260 262 262 262 262 262 262 263 264 266 267 266 266 266 267 267 266 264 262 261 262 262 263 263 264 264 264 265 266 266 266 266 265 266 266 266 265 265 265 264 264 263 264 264 265 266 266 267 267 267 266 265 265 266 267 268 269 270 270 270 268 266 263 261 259 258 258 256 253
264 265 265 267 268 269 268 267 266 264 260 257 256 256 255 256 256 257 259 261 262 262 262 263 263 263 263 265 266 266 267 267 267 266 264 261 259 259 261 262 263 264 265 266 267 267 267 268 267 267 267 266 265 265 264 264 263 263 263 264 265 266 267 268 268 268 267 267 266 265 265 266 267 268 269 270 270 270 267 265 262 260 258 257 256 254
261 261 261 262 263 263 263 262 260 257 254 253 253 254 256 258 257 256 257 259 260 261 262 263 263 263 262 261 262 264 265 266 266 265 262 258 257 257 260 262 264 265 266 267 267 266 267 268 269 270 270 269 267 266 265 264 264 264 265 265 266 267 267 268 268 268 267 267 266 266 265 266 267 268 269 270 270 270 269 266 264 261 258 257 256 254
261 260 258 257 255 255 254 254 253 252 252 253 254 256 258 259 259 258 258 259 260 260 261 262 262 263 262 261 260 260 261 262 263 262 258 255 255 257 261 264 266 266 267 266 265 265 265 267 269 270 270 269 268 267 265 265 265 265 265 266 266 266 266 266 266 266 266 266 266 266 265 266 266 267 269 270 270 270 269 267 264 262 259 257 255 254
262 260 257 253 251 251 249 249 250 251 252 254 255 257 258 258 258 257 257 258 259 260 260 260 261 262 263 262 260 258 256 258 258 257 256 255 256 259 261 264 265 265 263 262 262 264 266 266 266 265 264 262 261 261 261 260 261 261 262 262 262 263 263 263 264 264 264 265 265 265 266 266 266 267 268 269 270 270 269 267 265 262 259 257 255 254
262 261 258 257 257 255 253 251 251 251 252 253 254 255 256 256 255 254 253 255 256 257 257 257 258 261 262 262 259 255 254 254 256 257 259 261 263 263 262 260 261 261 260 259 261 264 266 265 263 261 259 257 256 256 255 254 253 254 255 257 259 261 263 263 264 264 264 265 265 266 266 266 267 268 268 269 269 269 268 267 264 261 259 256 254 253
260 259 260 260 262 262 260 258 255 253 252 252 252 253 253 253 253 253 252 252 253 253 252 252 252 255 261 263 260 254 251 253 256 259 263 266 267 264 259 257 258 259 259 258 260 263 265 264 261 258 256 254 252 250 248 247 247 249 253 257 262 264 266 266 266 266 266 266 266 267 267 268 268 268 269 269 269 268 268 266 264 261 258 256 254 252
257 256 257 258 260 262 263 262 258 255 251 250 251 252 253 252 252 251 249 248 249 250 249 249 247 248 255 258 259 257 252 251 254 258 261 263 263 260 256 256 257 258 257 257 259 262 264 261 258 257 254 252 247 243 241 242 245 251 257 263 267 270 270 269 268 267 267 267 267 268 268 269 269 269 269 269 268 268 266 265 263 260 258 255 253 251
255 255 254 255 256 258 259 259 258 255 252 250 251 252 253 252 251 249 247 246 246 246 247 247 247 249 254 257 259 259 255 250 249 253 256 256 257 256 255 257 257 256 254 255 258 262 263 261 257 253 249 246 241 239 239 243 248 256 263 269 272 274 273 272 270 269 267 267 267 267 268 268 269 269 268 268 267 266 265 263 262 259 257 255 253 251
256 255 254 254 256 257 257 256 255 255 254 254 254 254 253 252 250 246 244 243 244 245 246 246 248 251 254 257 259 260 256 250 247 248 251 254 256 258 260 259 256 253 251 254 260 264 263 257 252 248 244 242 240 240 242 246 253 261 268 272 275 276 276 275 273 271 268 267 267 267 267 268 268 268 267 266 265 264 262 261 260 258 256 254 252 250
256 256 256 256 256 257 256 256 255 256 257 259 259 256 252 249 246 243 242 243 244 245 246 246 248 251 254 257 259 259 255 245 241 245 254 256 258 260 261 257 251 247 251 260 267 267 260 252 247 246 244 241 241 242 244 249 257 264 269 273 277 279 280 279 276 273 270 269 268 268 268 268 268 267 266 264 263 261 260 259 258 256 255 253 252 250
256 257 257 257 257 256 256 256 256 257 257 258 257 254 250 247 246 244 243 245 248 251 253 255 256 257 258 259 259 258 253 244 243 250 259 260 259 258 257 251 245 248 260 270 274 269 257 249 246 246 244 242 242 244 247 254 260 266 270 275 279 283 285 284 281 277 274 272 271 270 270 270 268 267 264 262 260 259 258 257 256 255 254 252 251 249
256 257 258 258 257 256 256 256 257 256 254 253 253 253 252 251 249 248 249 253 257 262 265 268 269 269 267 264 262 259 254 246 244 249 256 256 256 257 258 254 255 264 271 276 276 268 254 249 247 246 245 244 244 246 251 259 265 269 273 278 283 288 290 290 287 283 279 277 275 274 273 271 269 266 263 260 258 257 256 255 254 253 252 251 249 248
254 256 257 257 256 254 254 254 254 253 251 251 252 254 256 256 257 258 260 263 266 268 271 274 276 275 272 269 267 264 258 249 245 246 251 255 261 264 266 268 271 273 275 276 273 264 252 247 246 246 246 246 247 250 257 265 270 274 277 282 289 294 297 298 296 291 286 282 280 277 275 272 268 265 261 258 256 255 254 253 252 251 250 249 248 246
251 252 253 254 254 253 253 253 253 252 251 251 253 257 260 263 265 267 268 269 268 268 268 270 271 269 268 268 269 267 260 252 243 240 246 258 268 271 271 271 271 272 273 273 268 259 249 245 244 245 246 248 251 256 264 272 277 280 285 290 296 301 305 307 306 301 294 288 283 280 276 272 267 263 259 256 254 253 252 251 250 249 248 247 246 244
247 249 250 251 252 252 252 252 252 251 251 252 253 257 260 264 268 270 269 268 266 265 265 265 263 261 263 264 264 263 260 252 242 238 246 258 269 272 271 270 267 265 266 267 261 250 242 243 245 246 248 251 255 262 271 279 285 290 297 304 308 311 316 320 320 316 307 297 289 282 277 271 265 260 256 253 251 250 249 248 248 247 246 244 242 240
246 246 248 249 250 252 252 253 252 252 252 251 252 254 257 261 264 265 263 261 260 259 258 255 254 256 258 258 259 261 261 256 247 240 242 251 261 268 268 266 260 256 258 258 251 239 235 241 247 251 254 258 263 270 281 289 296 305 316 324 328 331 333 336 338 336 329 315 300 288 278 270 263 257 253 250 248 247 246 245 245 244 242 240 237 236
245 246 247 248 249 250 252 253 253 253 253 252 252 253 254 255 257 257 255 256 255 254 252 249 250 252 251 249 256 260 260 257 249 239 235 243 250 259 262 262 255 248 249 246 239 233 232 239 249 258 265 271 277 284 296 307 318 330 343 351 355 356 357 357 358 357 353 342 323 299 281 268 259 252 248 246 244 243 243 242 242 241 238 234 232 230
244 245 246 247 248 249 251 252 253 253 253 253 252 252 251 251 251 251 252 253 252 250 248 246 245 246 248 252 258 260 258 255 250 241 230 232 241 253 257 254 243 233 230 229 231 231 229 233 247 271 288 303 309 313 323 335 345 357 7 15 19 20 19 19 17 15 12 7 356 331 293 269 256 248 244 242 241 241 241 240 239 236 233 229 227 226
242 243 244 246 247 248 249 250 251 251 251 251 251 251 250 249 248 248 249 249 248 247 247 246 246 246 247 253 256 255 253 254 251 241 226 219 232 249 249 242 228 217 209 212 224 231 224 219 230 298 333 350 356 355 355 358 6 13 18 26 30 31 31 31 30 27 24 22 20 15 355 295 256 245 242 241 241 241 240 237 232 227 223 220 218 219
240 240 241 243 245 246 246 246 247 248 249 249 249 249 248 247 246 246 246 245 244 244 246 248 249 249 247 247 243 240 245 256 252 238 221 212 223 241 239 230 215 206 201 203 213 234 216 196 190 359 13 17 19 17 14 15 18 24 28 31 33 34 35 37 36 34 30 29 30 33 39 46 64 216 228 234 236 236 232 226 217 209 204 199 197 197
239 239 240 242 243 243 242 243 243 244 245 245 245 245 245 244 244 243 243 243 243 243 245 248 250 250 248 244 243 246 255 261 254 236 216 209 221 234 231 220 208 203 204 207 219 250 242 180 159 66 26 28 29 28 27 27 29 33 37 36 36 37 39 41 40 38 36 33 33 38 46 55 67 84 117 165 193 203 204 201 195 189 183 175 166 160
240 240 240 241 241 239 238 238 238 239 240 240 241 242 243 243 242 242 241 240 240 241 243 246 249 250 250 248 249 252 256 259 255 237 216 209 216 227 222 210 202 201 204 211 226 251 266 200 155 139 48 38 37 36 35 35 37 40 42 40 38 39 42 44 44 43 42 39 38 41 47 55 63 73 85 101 121 141 157 167 171 172 169 161 150 140
239 239 239 239 238 236 234 233 234 234 235 236 237 238 239 239 239 239 238 238 238 239 240 242 245 247 250 251 252 254 255 255 251 237 219 210 212 218 213 202 197 197 199 207 220 235 247 195 171 161 123 64 49 43 40 40 42 45 47 46 44 42 43 44 45 45 46 46 45 45 49 54 60 67 74 83 95 108 120 132 142 149 152 149 141 133
238 237 237 236 234 233 233 234 235 234 233 234 235 235 235 234 234 235 235 235 235 236 236 238 240 242 245 248 251 253 254 253 248 236 222 212 211 213 207 202 197 195 195 197 201 204 200 186 183 178 158 105 61 48 44 45 46 49 53 54 52 49 47 47 46 46 48 49 49 49 52 56 60 64 68 74 82 91 99 106 113 120 126 130 130 127
235 234 234 233 233 233 233 234 234 233 233 233 233 233 232 232 232 232 232 233 233 233 233 235 236 238 240 243 246 249 252 253 249 238 224 217 213 211 206 202 198 194 192 193 191 185 177 177 178 172 156 134 86 54 47 49 51 53 54 56 56 55 54 53 51 50 50 50 50 51 53 57 61 65 68 72 78 84 89 93 96 100 105 110 114 117
231 232 233 232 233 233 234 233 233 232 232 232 233 234 235 235 236 236 236 235 235 236 236 237 238 239 241 242 245 248 250 252 249 239 226 219 213 209 203 200 196 193 189 186 180 173 167 164 162 157 134 112 98 76 58 54 54 54 53 54 55 55 55 56 55 54 53 53 52 53 54 58 62 66 69 73 76 80 83 85 88 91 94 97 101 105
228 229 231 231 232 232 233 234 233 232 232 233 235 237 240 241 242 242 242 243 244 245 246 247 248 249 249 249 250 250 251 252 248 237 224 215 209 205 199 193 190 189 186 178 171 165 157 156 153 145 123 99 91 92 83 68 62 58 55 57 57 56 55 55 56 57 57 56 56 57 58 60 63 66 69 72 75 78 79 80 82 85 87 89 91 94
229 230 231 232 232 232 233 233 234 234 235 237 239 241 242 243 243 244 245 247 248 250 251 252 253 253 252 252 252 251 250 248 241 229 216 208 203 199 193 182 174 173 172 166 163 161 160 157 150 141 135 124 106 92 81 74 69 65 63 61 58 55 54 54 55 57 58 59 59 59 60 61 63 64 65 67 70 73 74 76 79 82 84 85 86 87
227 228 230 231 233 233 233 234 235 236 237 238 239 240 240 241 242 243 244 245 246 246 245 244 242 241 240 239 239 239 236 230 220 210 202 197 194 191 183 171 162 158 154 150 148 148 146 139 130 126 128 125 119 103 86 72 66 68 70 67 59 51 50 53 55 57 59 61 61 61 61 62 63 63 63 64 65 66 69 72 76 80 83 86 86 85
226 228 230 232 233 233 233 233 234 235 236 236 235 235 235 235 235 234 234 232 230 225 220 212 203 195 187 179 176 178 182 183 183 183 183 183 181 176 168 158 151 146 142 134 127 122 118 116 114 113 112 112 109 100 87 73 66 68 73 75 70 61 55 55 56 58 60 62 63 64 64 64 64 64 64 64 63 65 68 71 73 75 79 82 85 87
232 232 230 229 227 226 227 229 232 234 234 231 228 225 224 221 216 209 201 193 186 178 169 160 147 131 113 101 100 106 117 132 147 156 161 164 163 158 151 145 142 137 130 120 110 106 106 105 104 104 106 108 106 99 85 73 67 66 69 74 76 71 62 56 57 60 61 62 64 66 66 66 66 65 66 65 65 66 68 70 71 72 73 75 78 81
235 228 219 215 216 218 221 223 224 224 222 217 213 211 209 204 197 189 179 170 165 161 155 147 134 119 104 91 83 82 86 96 110 124 133 138 140 139 135 132 131 128 124 114 106 100 98 94 90 90 94 100 101 97 89 78 67 60 58 64 71 73 63 49 53 59 62 64 65 67 68 68 68 68 68 67 67 67 68 68 69 70 72 74 75 76
207 200 198 200 204 207 208 205 203 201 198 194 194 195 194 190 185 179 172 165 160 155 148 138 126 116 106 98 90 83 81 85 92 100 107 114 120 122 121 118 117 116 115 111 107 102 96 89 83 83 87 91 92 91 87 82 74 65 61 64 69 73 73 60 57 59 62 65 67 68 70 71 72 71 69 67 66 65 66 66 67 68 70 73 74 75
173 171 174 179 181 179 176 179 182 182 181 180 180 180 180 180 178 174 167 158 150 144 139 132 123 114 107 103 100 95 87 83 84 89 94 100 106 110 111 109 107 105 103 100 99 98 96 93 89 88 89 88 86 85 85 83 80 75 71 70 71 71 68 65 63 63 64 65 66 68 71 74 74 72 69 66 63 62 62 63 64 65 67 70 72 74
149 152 156 161 163 166 168 169 167 165 163 161 158 159 161 164 163 160 153 146 140 136 134 129 123 118 113 112 109 105 98 91 86 86 88 92 97 100 102 103 102 101 97 93 90 90 90 91 93 94 91 86 82 80 79 82 82 80 77 76 74 71 66 62 61 62 65 66 68 70 73 75 75 73 70 67 63 61 60 61 61 63 65 68 70 72
138 144 149 152 153 153 153 150 147 143 137 131 127 128 133 138 140 139 137 134 132 129 125 121 117 115 115 115 114 112 107 102 97 92 90 90 92 94 96 98 99 99 96 92 88 84 81 81 82 87 91 89 84 77 74 76 78 79 79 78 76 73 67 60 58 60 64 67 69 71 74 76 75 74 73 70 66 63 60 60 60 62 64 67 69 71
130 134 137 137 135 131 128 128 126 123 118 113 109 109 113 119 122 122 122 123 122 121 118 114 111 109 108 108 110 111 111 109 106 102 99 97 96 96 97 96 96 94 92 90 87 83 79 75 72 72 75 81 84 82 77 73 74 76 76 77 77 75 71 64 61 62 65 67 69 72 75 76 77 77 76 73 70 66 62 60 60 61 64 67 70 71
105 110 115 118 117 115 113 114 114 113 109 106 103 100 100 103 105 107 109 112 114 113 111 110 109 107 104 104 106 108 110 110 109 107 106 105 105 104 103 101 99 96 92 89 86 82 78 73 68 65 64 67 73 78 78 75 74 74 74 75 76 76 73 68 65 65 66 67 69 71 74 76 78 81 81 78 74 70 65 62 62 63 65 68 71 73
79 87 94 98 100 101 102 103 103 103 102 102 99 96 93 92 94 96 99 101 103 103 103 105 107 106 105 105 106 108 110 110 110 109 110 112 113 113 112 110 108 104 100 95 91 87 81 73 66 60 58 59 62 68 74 76 76 75 73 72 74 76 76 72 69 68 68 68 70 72 73 74 76 79 81 81 78 74 69 65 63 64 66 69 72 74
66 72 79 83 84 85 87 89 91 92 94 95 94 92 90 88 87 89 91 91 92 93 95 98 100 102 103 102 102 105 108 110 111 111 113 116 118 119 119 119 117 115 111 106 101 97 91 83 69 57 51 49 52 59 66 71 78 79 74 72 74 77 77 75 73 71 70 70 70 71 72 72 73 75 78 81 80 77 72 67 64 64 67 70 73 75